Weather History for Audubon, IA

Change the Weather History Date:

Wednesday, April 17, 2013

  Actual Average Record
Temperature  
Mean Temperature 42 °F -  
Max Temperature 44 °F 63 °F 86 °F (2004)
Min Temperature 39 °F 39 °F 21 °F (1951)
Degree Days  
Heating Degree Days 24    
Moisture  
Dew Point 35 °F    
Average Humidity 79    
Maximum Humidity 87    
Minimum Humidity 61    
Precipitation  
Precipitation 0.00 in - - ()
Sea Level Pressure  
Sea Level Pressure 29.94 in    
Wind  
Wind Speed 11 mph (NE)    
Max Wind Speed 26 mph    
Max Gust Speed 31 mph    
Visibility 7 miles    
Events      
Averages and records for this station are not official NWS values.
T = Trace of Precipitation, MM = Missing Value Source: NWS Daily Summary

Daily Weather History Graph

Daily Weather History Graph

Search for Another Location

Airport:

Trip Planner

Search our weather history database for the weather conditions in past years. The results will help you decide how hot, cold, wet, or windy it might be!

Date:

Astronomy

Apr. 17, 2013 Rise Set
Actual Time 6:36 AM CDT 8:02 PM CDT
Civil Twilight 6:07 AM CDT 8:32 PM CDT
Nautical Twilight 5:32 AM CDT 9:07 PM CDT
Astronomical Twilight 4:55 AM CDT 9:44 PM CDT
Moon 11:49 AM CDT (4/17) 1:43 AM CDT (4/17)
Length of Visible Light 14h 24m
Length of Day
13h 26m
Waxing Crescent, 42% of the Moon is Illuminated
Apr 17
Waxing Crescent
Apr 18
First Quarter
Apr 25
Full
May 2
Last Quarter
May 9
New

Hourly Weather History & Observations

Time (CDT) Temp. Windchill Dew Point Humidity Pressure Visibility Wind Dir Wind Speed Gust Speed Precip Events Conditions
12:15 AM 44.6 °F 38.4 °F 32.0 °F 61% 30.18 in 10.0 mi ENE 12.7 mph - N/A   Overcast
12:35 AM 44.6 °F 39.2 °F 32.0 °F 61% 30.18 in 10.0 mi ENE 10.4 mph - N/A   Overcast
12:55 AM 44.6 °F 39.7 °F 33.8 °F 66% 30.18 in 10.0 mi ENE 9.2 mph - N/A   Overcast
1:15 AM 44.6 °F 39.2 °F 33.8 °F 66% 30.19 in 10.0 mi East 10.4 mph - N/A   Overcast
1:35 AM 44.6 °F 40.2 °F 33.8 °F 66% 30.20 in 10.0 mi ENE 8.1 mph - N/A   Overcast
1:55 AM 44.6 °F 40.2 °F 33.8 °F 66% 30.19 in 10.0 mi ENE 8.1 mph - N/A   Overcast
2:15 AM 44.6 °F 38.4 °F 33.8 °F 66% 30.16 in 10.0 mi ENE 12.7 mph - N/A   Overcast
2:35 AM 44.6 °F 39.2 °F 33.8 °F 66% 30.14 in 10.0 mi NE 10.4 mph - N/A   Overcast
2:55 AM 44.6 °F 38.1 °F 33.8 °F 66% 30.11 in 10.0 mi ENE 13.8 mph - N/A   Overcast
3:15 AM 44.6 °F 38.4 °F 33.8 °F 66% 30.12 in 10.0 mi ENE 12.7 mph 16.1 mph N/A   Overcast
3:35 AM 42.8 °F 36.2 °F 33.8 °F 70% 30.10 in 10.0 mi ENE 12.7 mph 16.1 mph N/A   Overcast
3:55 AM 42.8 °F 37.0 °F 33.8 °F 70% 30.11 in 10.0 mi ENE 10.4 mph 16.1 mph N/A   Overcast
4:15 AM 42.8 °F 36.6 °F 33.8 °F 70% 30.09 in 10.0 mi East 11.5 mph - N/A   Overcast
4:35 AM 42.8 °F 36.6 °F 33.8 °F 70% 30.07 in 10.0 mi East 11.5 mph 17.3 mph N/A   Overcast
4:55 AM 42.8 °F 35.8 °F 33.8 °F 70% 30.07 in 10.0 mi East 13.8 mph - N/A   Overcast
5:15 AM 42.8 °F 36.6 °F 33.8 °F 70% 30.07 in 10.0 mi East 11.5 mph - N/A   Overcast
5:35 AM 42.8 °F 37.0 °F 33.8 °F 70% 30.04 in 10.0 mi ENE 10.4 mph - N/A   Overcast
5:55 AM 42.8 °F 36.2 °F 33.8 °F 70% 30.04 in 10.0 mi ENE 12.7 mph - N/A   Overcast
6:15 AM 42.8 °F 36.2 °F 33.8 °F 70% 30.03 in 10.0 mi ENE 12.7 mph - N/A   Overcast
6:35 AM 42.8 °F 37.0 °F 33.8 °F 70% 30.03 in 10.0 mi NE 10.4 mph - N/A   Overcast
6:55 AM 42.8 °F 40.1 °F 33.8 °F 70% 30.11 in 4.0 mi South 4.6 mph - N/A   Overcast
7:15 AM 41.0 °F 35.8 °F 33.8 °F 76% 30.06 in 2.0 mi NE 8.1 mph - N/A   Overcast
7:35 AM 41.0 °F 33.9 °F 33.8 °F 76% 30.05 in 1.8 mi East 12.7 mph - N/A   Overcast
7:55 AM 41.0 °F 33.9 °F 35.6 °F 81% 30.04 in 7.0 mi NE 12.7 mph 18.4 mph N/A   Overcast
8:15 AM 41.0 °F 38.0 °F 35.6 °F 81% 30.09 in 2.0 mi North 4.6 mph - N/A   Overcast
8:35 AM 41.0 °F 34.7 °F 35.6 °F 81% 30.05 in 3.0 mi NNE 10.4 mph - N/A   Overcast
9:15 AM 41.0 °F 30.5 °F 35.6 °F 81% 29.90 in 4.0 mi ENE 26.5 mph 31.1 mph N/A   Overcast
9:35 AM 41.0 °F 31.9 °F 35.6 °F 81% 29.92 in 10.0 mi East 19.6 mph 27.6 mph N/A   Overcast
9:55 AM 42.8 °F 35.4 °F 37.4 °F 81% 29.97 in 10.0 mi ESE 15.0 mph 26.5 mph N/A   Overcast
10:15 AM 42.8 °F - 37.4 °F 81% 30.01 in 10.0 mi Calm Calm - N/A   Overcast
10:35 AM 42.8 °F 37.5 °F 37.4 °F 81% 29.96 in 7.0 mi NNE 9.2 mph - N/A   Overcast
10:55 AM 42.8 °F 38.6 °F 37.4 °F 81% 29.98 in 7.0 mi NNE 6.9 mph - N/A   Overcast
11:15 AM 42.8 °F 37.5 °F 37.4 °F 81% 29.96 in 7.0 mi NNE 9.2 mph - N/A   Overcast
11:35 AM 42.8 °F 35.8 °F 37.4 °F 81% 29.93 in 5.0 mi NE 13.8 mph 17.3 mph N/A   Overcast
11:55 AM 42.8 °F 35.8 °F 37.4 °F 81% 29.93 in 5.0 mi NE 13.8 mph - N/A   Overcast
12:15 PM 42.8 °F 36.6 °F 37.4 °F 81% 29.94 in 5.0 mi ENE 11.5 mph - N/A   Overcast
12:35 PM 42.8 °F 36.2 °F 35.6 °F 76% 29.93 in 5.0 mi NE 12.7 mph - N/A   Overcast
12:55 PM 41.0 °F 33.9 °F 35.6 °F 81% 29.94 in 5.0 mi ENE 12.7 mph - N/A   Overcast
1:15 PM 39.2 °F 30.5 °F 35.6 °F 87% 29.86 in 5.0 mi NNE 16.1 mph 25.3 mph N/A   Overcast
1:35 PM 39.2 °F 29.8 °F 35.6 °F 87% 29.86 in 7.0 mi NE 18.4 mph - N/A   Overcast
1:55 PM 41.0 °F 33.5 °F 35.6 °F 81% 29.87 in 4.0 mi NE 13.8 mph 18.4 mph N/A   Overcast
2:15 PM 39.2 °F 32.0 °F 35.6 °F 87% 29.89 in 1.5 mi NE 11.5 mph - N/A   Overcast
2:35 PM 39.2 °F 32.5 °F 35.6 °F 87% 29.91 in 1.5 mi NE 10.4 mph - N/A   Overcast
2:55 PM 39.2 °F 31.2 °F 35.6 °F 87% 29.86 in 2.0 mi NE 13.8 mph 17.3 mph N/A   Overcast
3:35 PM 39.2 °F 32.0 °F 35.6 °F 87% 29.83 in 2.5 mi NE 11.5 mph - N/A   Overcast
3:55 PM 39.2 °F 31.2 °F 35.6 °F 87% 29.85 in 3.0 mi NE 13.8 mph 20.7 mph N/A   Overcast
4:15 PM 39.2 °F 33.0 °F 35.6 °F 87% 29.83 in 2.0 mi NE 9.2 mph 16.1 mph N/A   Overcast
4:35 PM 39.2 °F 31.2 °F 35.6 °F 87% 29.81 in 1.5 mi NNE 13.8 mph 21.9 mph N/A   Overcast
4:55 PM 39.2 °F 30.8 °F 35.6 °F 87% 29.80 in 3.0 mi NE 15.0 mph - N/A   Overcast
5:15 PM 39.2 °F 32.0 °F 35.6 °F 87% 29.80 in 3.0 mi NE 11.5 mph - N/A   Overcast
5:35 PM 39.2 °F 34.2 °F 35.6 °F 87% 29.83 in 2.5 mi NE 6.9 mph - N/A   Overcast
5:55 PM 39.2 °F - 35.6 °F 87% 29.83 in 10.0 mi Calm Calm - N/A   Overcast
6:15 PM 39.2 °F - 35.6 °F 87% 29.89 in 2.0 mi Calm Calm - N/A   Overcast
6:35 PM 39.2 °F - 35.6 °F 87% 29.87 in 1.5 mi Calm Calm - N/A   Overcast
6:55 PM 39.2 °F 32.5 °F 35.6 °F 87% 29.80 in 4.0 mi ENE 10.4 mph - N/A   Overcast
7:15 PM 39.2 °F 30.5 °F 35.6 °F 87% 29.71 in 10.0 mi NE 16.1 mph 24.2 mph N/A   Mostly Cloudy
7:35 PM 39.2 °F 30.2 °F 35.6 °F 87% 29.71 in 10.0 mi ENE 17.3 mph 24.2 mph N/A   Mostly Cloudy
7:55 PM 39.2 °F 32.5 °F 35.6 °F 87% 29.70 in 10.0 mi NE 10.4 mph 29.9 mph N/A   Overcast
8:15 PM 41.0 °F 34.7 °F 35.6 °F 81% 29.77 in 10.0 mi North 10.4 mph - N/A   Overcast
8:35 PM 39.2 °F 32.0 °F 35.6 °F 87% 29.79 in 10.0 mi NNW 11.5 mph - N/A   Overcast
8:55 PM 39.2 °F 32.5 °F 35.6 °F 87% 29.78 in 10.0 mi NNW 10.4 mph 16.1 mph N/A   Overcast
9:15 PM 39.2 °F 32.5 °F 35.6 °F 87% 29.81 in 10.0 mi NNW 10.4 mph - N/A   Overcast
9:55 PM 39.2 °F 30.8 °F 35.6 °F 87% 29.78 in 10.0 mi North 15.0 mph 24.2 mph N/A   Overcast
10:15 PM 39.2 °F 30.2 °F 35.6 °F 87% 29.78 in 7.0 mi North 17.3 mph 21.9 mph N/A   Overcast
10:35 PM 39.2 °F 32.0 °F 35.6 °F 87% 29.79 in 4.0 mi North 11.5 mph 19.6 mph N/A   Overcast
10:55 PM 39.2 °F 31.2 °F 35.6 °F 87% 29.79 in 2.5 mi North 13.8 mph 19.6 mph N/A   Overcast
11:15 PM 39.2 °F 30.8 °F 33.8 °F 81% 29.78 in 3.0 mi North 15.0 mph 19.6 mph N/A   Overcast
11:35 PM 39.2 °F 30.8 °F 33.8 °F 81% 29.77 in 2.5 mi North 15.0 mph - N/A   Overcast
11:55 PM 39.2 °F 30.2 °F 33.8 °F 81% 29.75 in 3.0 mi North 17.3 mph 23.0 mph N/A   Overcast